Regional Weather Roundup
Issued by NWS

Home | Current Version | Previous Version | Text Only | Print | Product List | Glossary Off
Versions: 1 2 3 4 5 6 7 8 9 10 11 12 13 14 15 16 17 18 19 20 21 22 23 24 25 26 27 28 29 30 31 32 33 34 35 36 37 38 39 40 41 42 43 44 45 46 47 48 49 50

000
ASUS43 KLMK 301710
RWRKY
KENTUCKY REGIONAL WEATHER ROUNDUP
NATIONAL WEATHER SERVICE LOUISVILLE KY
1200 PM EST FRI JAN 30 2015

NOTE "FAIR" INDICATES FEW OR NO CLOUDS BELOW 12,000 FEET
WITH NO SIGNIFICANT WEATHER AND/OR OBSTRUCTIONS TO VISIBILITY.

KYZ001>023-026-027-061>063-070>075-301800-
WESTERN AND SOUTH CENTRAL KENTUCKY

CITY           SKY/WX    TMP DP  RH WIND       PRES   REMARKS
PADUCAH        SUNNY     40  21  46 NE7       30.53S
HENDERSON      MOSUNNY   36  21  55 N9        30.53F WCI  29
OWENSBORO      PTSUNNY   37  23  57 N9        30.53R WCI  30
HOPKINSVILLE   PTSUNNY   38  24  55 N9        30.50F WCI  32
BOWLING GREEN  MOSUNNY   40  21  46 NW8       30.50S WCI  34
GLASGOW        CLOUDY    38  22  52 NW7G16    30.47F WCI  32
$$

KYZ024-025-028>034-038-045-046-053-301800-
NORTH CENTRAL KENTUCKY

CITY           SKY/WX    TMP DP  RH WIND       PRES   REMARKS
LOUISVILLE/SDF PTSUNNY   35  18  49 N17       30.49R WCI  25
LOUISVILLE/LOU PTSUNNY   36  18  48 NW8       30.50R WCI  30
FORT KNOX      MIX PCPN  36  25  64 N7        30.46F WCI  30
$$

KYZ035>037-039>044-047>052-055>060-089>105-301800-
NORTHEAST KENTUCKY

CITY           SKY/WX    TMP DP  RH WIND       PRES   REMARKS
LEXINGTON      CLOUDY    32  18  56 N20       30.44R WCI  20
COVINGTON      NOT AVBL
FRANKFORT      MOSUNNY   33  15  47 NW14G24   30.45R WCI  23
$$

KYZ054-064>069-076>088-106>120-301800-
SOUTHEAST KENTUCKY

CITY           SKY/WX    TMP DP  RH WIND       PRES   REMARKS
JACKSON        CLOUDY    32  18  56 NW13G24   30.35S WCI  22
LONDON         CLOUDY    37  19  48 NW8G20    30.38R WCI  31
SOMERSET       PTSUNNY   36  19  51 N12       30.43S WCI  27
MIDDLESBORO    CLOUDY    37  20  50 N12       30.38R WCI  29
MONTICELLO     PTSUNNY   40  23  50 N15G21    30.46R WCI  32
$$



USA.gov is the U.S. government's official web portal to all federal, state and local government web resources and services.